GFSFLT1_250_rhum_153.txt.gz
RH
68 63 100 95 85 71 57 57 59 50 43 33 38 28 25 26 35 32 40 34 34 45 63 87 96 99 100 100 97 87 95 98
62 99 100 98 100 82 94 86 76 61 56 47 45 46 42 41 59 68 68 58 55 74 88 98 92 94 99 94 98 100 100 100
98 100 100 100 100 100 100 100 99 78 71 74 66 68 87 57 72 97 100 100 88 77 70 70 76 83 84 91 96 88 98 100
100 100 100 100 100 100 100 100 99 77 71 98 100 100 100 100 100 100 100 100 98 93 94 94 90 87 86 82 86 90 92 90
84 75 100 100 100 100 100 100 99 82 68 66 71 98 100 100 100 100 100 100 100 100 100 100 91 83 87 90 81 75 78 77
76 72 74 89 100 100 100 95 90 85 78 82 73 69 96 100 100 100 100 100 100 100 100 100 100 100 100 99 94 80 72 73
64 64 63 68 67 81 88 86 88 85 83 76 71 72 76 76 73 69 66 66 78 95 100 100 100 100 100 100 100 100 97 89
76 70 67 67 69 73 79 82 75 72 73 73 84 72 72 70 70 74 78 74 79 80 80 99 100 100 100 100 100 100 100 100
54 78 89 93 86 79 89 96 87 85 83 81 85 93 85 76 82 80 79 87 100 100 100 98 100 100 100 100 100 100 100 100
100 100 100 100 100 100 100 100 100 100 100 94 100 100 100 100 98 89 100 98 95 82 91 100 100 100 99 98 100 98 99 100
91 91 100 100 100 100 100 100 100 100 100 100 100 100 100 100 100 100 100 100 100 100 99 84 95 100 87 70 79 61 65 78
100 92 91 100 100 100 100 100 100 100 100 100 100 100 100 100 100 100 100 100 100 100 100 100 97 100 100 81 55 62 53 57
100 95 93 91 92 100 83 100 100 87 80 96 100 100 100 100 100 100 100 100 100 100 100 100 94 92 79 64 86 57 93 100
100 99 99 96 100 100 100 100 100 100 100 100 100 100 100 100 100 100 100 100 100 100 100 100 100 100 89 81 78 100 94 89
87 92 91 65 71 93 88 96 100 100 95 98 100 100 100 100 100 100 100 100 100 100 100 100 100 100 100 90 96 100 98 97
32 33 36 34 37 55 56 58 51 48 58 73 79 75 98 100 100 100 100 100 100 100 100 100 100 100 100 100 98 93 66 84
33 34 30 26 29 38 40 40 40 36 39 50 56 80 100 98 94 94 100 100 100 100 100 100 100 100 100 85 100 91 100 100
28 30 28 28 28 25 28 33 37 41 44 43 62 74 73 76 91 100 100 100 100 100 100 100 100 100 100 100 100 100 100 96
20 21 21 20 20 20 22 25 28 31 35 42 46 53 57 69 91 100 100 100 100 100 100 100 100 100 100 97 87 100 91 100

GFSFLT1_250_rhum_156.txt.gz
RH
60 69 62 51 48 47 53 53 67 74 93 100 98 90 73 52 50 38 30 26 24 22 22 26 30 41 36 54 75 88 95 100
60 71 71 68 75 89 100 84 86 97 100 100 100 99 75 70 63 64 50 39 39 38 34 70 87 65 47 41 44 62 81 82
75 81 80 74 71 86 94 100 100 100 100 100 100 100 100 75 83 100 100 100 100 100 100 100 100 100 93 77 81 70 70 80
85 72 78 72 63 61 68 71 69 95 100 100 100 100 100 84 75 74 80 100 100 100 100 100 100 100 100 100 100 100 100 100
92 95 83 88 68 59 65 69 68 92 96 100 100 100 100 97 89 77 78 80 91 100 100 100 100 100 100 100 100 100 100 100
63 62 64 84 80 66 63 64 97 100 90 92 94 93 84 90 96 79 78 85 82 78 91 95 98 96 92 92 96 100 100 100
63 57 48 55 80 68 70 71 76 97 82 86 89 90 86 70 64 72 73 89 97 90 88 83 82 84 83 86 94 99 100 100
50 45 57 94 98 75 100 78 70 78 74 73 82 89 77 76 79 59 73 71 74 88 89 83 68 66 71 73 85 94 88 94
42 65 74 75 98 100 100 100 94 100 100 100 100 100 100 100 100 100 100 99 92 90 83 97 87 96 100 100 100 96 100 86
67 100 100 99 74 80 96 100 100 100 100 100 100 100 100 100 100 100 90 83 76 72 67 100 100 100 100 100 88 83 88 78
100 100 100 100 97 91 100 100 100 100 96 100 100 100 100 100 100 100 100 92 99 100 100 100 95 83 95 91 99 94 79 73
100 100 100 100 100 100 100 100 100 100 100 100 100 100 100 100 97 100 100 100 100 100 100 96 100 100 100 100 100 97 76 77
100 100 100 100 100 100 100 100 100 100 100 100 100 100 100 100 100 100 98 100 100 100 100 100 100 100 100 100 100 100 100 100
100 100 100 100 100 100 100 100 100 100 98 80 83 94 96 95 95 98 98 100 100 100 100 100 100 100 100 100 100 100 100 100
100 94 100 100 99 100 96 76 78 83 78 60 52 43 40 40 43 59 66 96 100 100 100 100 100 100 100 100 100 100 100 100
100 91 68 47 37 38 48 49 46 49 48 41 33 32 36 39 43 47 50 61 82 100 100 100 100 100 100 100 100 100 100 98
89 64 54 51 41 34 33 36 38 34 32 29 31 32 35 37 40 47 59 69 72 96 100 100 100 100 100 100 100 95 100 100
56 50 33 30 30 33 33 30 26 26 24 22 23 28 29 32 35 42 51 56 73 88 97 100 100 100 100 100 100 100 100 100
38 28 30 31 27 22 20 21 18 15 18 18 18 19 21 25 30 38 50 57 67 84 95 100 100 100 100 100 100 100 100 100

GFSFLT1_250_rhum_159.txt.gz
RH
100 97 92 89 77 73 82 73 65 67 62 56 55 60 97 94 97 99 100 99 79 52 45 36 31 26 29 51 69 86 56 54
86 76 88 100 97 80 70 68 65 65 68 62 55 56 77 78 90 100 100 100 100 80 68 92 86 64 62 53 98 100 100 100
100 94 84 93 80 74 70 69 66 60 59 68 63 62 90 98 100 100 100 100 100 98 83 70 78 80 71 72 62 68 89 100
92 84 100 98 85 75 71 72 67 62 65 82 77 73 73 82 100 100 100 100 100 100 96 86 87 98 100 100 100 100 100 100
87 100 100 99 86 87 77 70 68 58 63 97 99 81 84 94 100 100 100 100 91 97 100 94 88 97 97 98 99 100 100 97
67 75 96 91 92 88 81 84 91 79 100 100 100 87 99 100 100 100 86 89 90 91 95 93 81 81 86 86 98 100 100 100
55 56 67 89 90 91 98 97 100 82 100 100 100 100 86 100 73 96 84 80 81 81 89 65 99 78 83 90 71 71 62 70
35 42 54 66 71 84 100 100 100 96 82 62 77 98 84 92 100 92 97 91 86 96 87 95 100 100 100 100 94 88 95 100
66 90 68 64 56 97 100 90 100 75 100 81 94 92 65 57 86 100 68 63 65 55 42 62 92 92 81 99 100 93 79 99
64 79 77 89 69 79 100 94 74 71 100 100 100 100 100 100 100 100 100 100 95 82 97 100 98 73 76 75 89 100 100 100
89 100 99 96 100 100 89 100 100 100 100 100 100 100 100 100 100 100 100 100 100 100 100 100 100 100 100 100 97 100 100 100
100 100 100 100 100 100 100 100 100 100 100 100 100 100 100 100 100 100 100 100 100 100 100 100 100 100 100 100 100 92 85 100
94 100 100 100 100 100 100 100 100 100 100 100 100 100 100 100 100 100 100 100 100 100 100 100 100 100 100 99 100 100 100 100
84 80 70 100 100 98 100 99 99 100 100 100 100 100 96 93 100 100 98 93 88 90 100 90 82 88 93 92 100 100 100 100
76 100 100 100 100 100 100 91 99 100 100 100 100 100 100 100 93 90 90 54 47 46 51 60 64 85 78 88 100 100 100 100
55 56 63 66 62 62 64 62 56 52 58 61 63 58 52 49 50 50 40 37 37 41 48 52 53 62 80 86 98 100 100 100
100 100 89 81 82 68 58 48 41 36 39 36 38 43 36 31 32 32 35 36 37 44 39 45 48 56 72 86 98 100 100 97
84 68 61 52 52 47 43 38 35 34 30 26 24 22 20 20 20 18 18 21 28 30 38 46 47 67 85 82 89 100 87 92
64 45 39 43 44 35 30 23 25 24 21 17 15 15 15 14 13 14 12 15 22 33 35 47 50 69 64 87 91 97 100 100

GFSFLT1_250_rhum_162.txt.gz
RH
95 93 100 100 100 100 100 100 100 93 100 97 87 78 72 68 62 58 50 46 63 84 97 100 100 100 98 63 46 56 59 74
84 76 87 98 92 85 73 66 58 78 88 98 91 87 82 77 63 73 64 73 100 100 100 100 100 100 100 91 76 82 88 72
83 93 79 73 68 73 65 62 64 89 100 100 91 90 91 87 65 88 84 80 100 100 100 100 100 100 100 100 92 80 82 92
74 91 78 66 69 74 88 91 100 100 100 100 94 90 100 100 77 92 100 86 88 100 100 100 100 100 100 90 90 86 86 94
85 79 79 63 62 66 81 99 100 100 99 100 100 100 100 100 89 100 100 100 78 88 100 100 100 100 100 100 99 92 82 75
68 83 80 74 69 76 75 82 90 100 100 100 100 100 100 100 100 100 100 100 100 90 95 100 100 100 100 100 100 100 96 98
44 44 47 46 61 64 60 63 62 76 99 100 100 100 100 100 100 100 100 100 100 100 99 96 86 100 100 100 100 100 100 100
42 42 40 34 34 38 38 40 64 94 100 100 100 100 100 100 80 92 100 99 58 84 61 82 100 100 80 88 82 86 62 63
36 35 44 57 67 54 45 46 78 69 74 92 92 99 100 100 90 64 76 98 100 91 87 56 46 69 88 97 68 78 90 100
47 55 61 55 89 100 93 85 60 57 51 55 58 62 62 98 100 100 90 84 98 100 100 100 100 69 62 88 89 100 100 80
100 100 100 100 98 100 100 100 100 100 100 97 90 64 61 71 77 83 100 100 98 100 100 100 98 99 78 87 99 86 98 89
45 59 61 80 100 100 100 100 100 100 96 100 100 100 100 100 100 100 100 100 100 100 100 100 100 100 100 100 100 100 100 100
44 39 45 54 54 57 58 83 89 76 96 100 100 100 100 100 100 100 100 100 100 100 100 100 100 100 100 100 100 97 90 98
48 53 67 70 76 78 72 66 63 63 64 73 86 93 83 82 82 89 75 78 96 100 87 82 98 100 96 100 100 100 100 100
65 65 72 70 71 72 74 72 74 76 78 78 77 72 74 76 73 66 62 69 75 73 78 81 63 58 68 82 92 83 69 78
75 70 67 68 70 68 66 71 72 59 51 46 43 44 44 48 47 42 40 43 41 39 42 42 42 41 46 50 57 59 61 66
70 72 76 88 84 74 71 72 78 60 58 56 46 37 38 37 36 38 30 28 27 27 28 33 38 38 41 44 50 50 62 82
84 87 92 88 83 82 85 81 79 62 57 54 41 36 26 18 18 20 20 18 16 17 17 19 23 31 39 42 56 43 63 70
81 89 78 60 57 53 48 41 37 33 29 25 22 18 20 19 16 15 14 13 12 13 13 14 17 22 26 35 24 38 42 55

GFSFLT1_250_rhum_165.txt.gz
RH
78 73 75 88 88 89 94 76 88 92 98 96 98 99 100 100 100 100 100 100 98 99 79 80 72 84 100 95 100 100 100 100
79 62 48 56 70 78 72 92 95 100 100 100 100 100 100 100 100 100 100 100 100 100 72 89 90 92 100 100 93 100 100 100
60 62 48 38 41 57 74 78 94 100 100 100 100 100 100 100 96 100 96 90 94 100 87 86 100 100 100 100 93 98 100 100
60 55 55 47 41 39 45 64 83 87 100 100 100 100 100 100 100 100 100 100 100 100 100 96 100 100 100 100 100 100 100 100
31 32 35 32 30 32 56 70 99 100 100 100 100 100 100 100 100 100 100 100 100 100 100 100 100 100 100 100 100 100 100 100
25 28 27 24 29 44 68 78 95 100 100 100 100 100 100 100 100 100 100 100 100 100 100 100 100 100 100 100 100 100 100 100
24 26 25 24 30 53 54 77 99 100 100 100 100 100 100 100 100 100 100 100 100 100 100 100 100 100 100 100 100 100 100 100
35 35 41 42 38 39 41 36 48 59 92 78 67 100 100 100 100 98 100 100 100 100 92 100 100 95 97 100 100 100 97 100
27 29 31 31 30 33 35 34 30 33 45 49 64 69 56 54 52 88 89 100 100 100 100 78 90 81 73 84 100 100 100 74
29 29 30 34 38 42 45 47 74 81 100 100 84 75 99 100 100 86 73 73 62 61 96 96 100 85 79 57 86 97 93 97
40 39 40 47 47 52 54 54 58 86 100 100 100 99 85 91 100 100 100 100 100 100 98 71 58 80 66 52 52 57 68 84
36 42 54 58 65 74 73 78 82 78 72 66 63 60 68 84 83 78 89 98 100 92 94 100 100 100 100 100 88 62 86 87
39 52 64 81 84 79 76 78 86 81 77 73 75 73 76 80 81 79 78 82 78 76 71 78 85 90 100 100 100 100 100 100
54 63 75 74 77 79 76 74 83 92 93 99 98 92 98 96 82 84 87 78 68 64 63 64 66 73 71 80 100 88 99 100
74 75 81 78 71 69 79 76 73 79 80 76 77 88 92 88 82 80 80 73 68 57 50 47 46 44 44 47 54 62 64 69
92 74 76 74 81 73 70 72 72 70 64 68 71 76 72 72 70 75 71 59 55 47 52 49 44 40 42 39 39 41 42 45
84 71 70 84 70 82 86 77 66 64 59 64 57 56 44 37 39 41 39 32 29 27 24 24 25 24 23 22 25 27 34 43
71 64 83 76 86 92 89 81 68 58 63 63 45 34 36 34 31 28 23 19 16 16 15 15 16 17 18 19 20 21 24 29
52 56 42 58 68 74 65 54 52 52 45 30 28 30 26 23 22 20 18 16 16 15 13 12 12 12 12 13 14 16 18 24

GFSFLT1_250_rhum_171.txt.gz
RH
100 99 98 95 90 88 83 79 66 68 68 100 100 100 91 99 100 82 100 100 100 100 100 100 86 94 100 93 100 100 100 100
92 87 82 75 71 65 52 42 42 46 89 100 100 100 100 100 100 100 100 100 100 100 100 100 100 93 78 84 96 100 96 100
74 66 59 48 38 34 30 27 25 28 88 100 100 100 100 100 100 100 100 100 100 100 100 100 99 98 71 82 62 82 81 92
42 35 30 27 26 25 24 24 25 31 92 100 100 100 100 100 100 100 100 100 100 100 100 100 100 100 94 100 95 65 74 78
41 38 34 30 26 25 26 30 40 47 88 100 98 91 100 100 100 100 97 100 100 100 100 100 100 100 100 100 94 98 97 79
38 42 33 27 36 45 45 46 43 47 30 29 31 28 33 35 79 100 100 100 100 100 100 100 100 100 100 100 100 100 100 100
41 35 33 41 55 70 72 69 59 50 46 40 39 34 34 59 95 40 94 100 100 100 100 100 100 100 100 100 100 100 100 100
36 42 33 65 86 80 74 68 58 49 48 44 39 37 36 38 46 46 54 49 49 57 80 100 100 100 100 100 100 100 100 100
45 37 31 46 75 79 72 74 72 68 64 55 51 47 43 44 50 50 47 49 51 50 49 44 52 79 92 100 100 100 100 100
47 36 32 35 60 70 63 71 78 80 80 79 66 58 53 54 56 60 60 59 58 58 55 53 52 53 53 53 61 91 100 100
48 38 36 40 42 41 47 45 43 48 54 53 59 73 78 82 83 78 69 63 65 64 68 74 71 68 65 84 89 100 100 100
48 48 47 44 44 44 49 52 59 69 66 66 62 60 64 72 70 66 63 68 73 76 83 86 81 80 81 76 79 91 94 95
42 38 42 69 92 96 95 98 99 94 86 75 74 73 68 65 60 63 70 74 77 79 89 82 81 87 83 75 77 79 73 71
55 59 91 100 100 100 100 100 99 94 83 82 75 72 59 59 68 72 74 78 78 82 73 69 88 97 90 82 78 70 66 66
73 86 100 100 100 97 94 98 98 86 69 57 57 54 57 54 59 52 56 81 80 69 61 71 82 87 77 69 68 68 61 60
99 99 91 95 97 88 77 73 76 67 71 57 48 45 44 43 31 25 43 57 57 46 36 44 53 53 59 67 60 56 52 41
95 90 84 79 78 72 79 88 86 78 65 54 52 44 31 14 16 18 21 25 31 31 32 32 33 35 40 37 31 30 30 28
67 70 83 74 90 84 80 64 64 63 53 59 45 27 15 15 16 16 16 21 26 24 25 27 28 27 25 24 23 20 18 17
78 90 85 87 78 61 47 53 46 49 50 28 17 17 13 15 17 19 19 19 20 22 22 21 20 20 18 17 16 16 15 14